STARLINK-3838, 52352

Orbit data source: Space-Track

STARLINK-3838, 52352 is a payload satellite owned by SpaceX/Seattle (US) in LEO that was launched on Fri, 29 Apr 2022 UTC via an FALCON 9 launch vehicle from the Air Force Eastern Test Range (AFETR). Payload-class satellites include a variety of spacecraft equipped with specific instruments for various scientific and technological missions. These include communications satellites like Starlink; space stations such as the ISS; scientific satellites like the Hubble; Earth observation satellites from companies like Planet Labs, Umbra, and HawkEye 360; GPS; miniature CubeSats for education and research; and military/defense satellites.

Loading next visibility...
Identifier
52352, 2022-045X
Orbit
LEO
Country
Flag of USUS
Related business
Manufacturer
SpaceX/Seattle
Mission
Operational Commercial Communications
Bus & Motor
STARLINK, Unknown motor
Mass
297 kg wet, ~275 kg dry
Launch date (UTC)
2022-04-29 (4 years ago)
Launch vehicle
FALCON 9
Launch site
Air Force Eastern Test Range (AFETR)
Object type
Payload
Rocket body
Debris
Shape & HBR
Box + 1 Pan, 10.1 m
Radar Cross Section
11.087 m², Large (>1 m²)

Expand to show TLE details & history
Last TLE update: 10 hours ago

TLE from 10 hours ago
0 STARLINK-3838
1 52352U 22045X   25349.89155902 -.00000146  00000-0  89459-5 0  9994
2 52352  53.2159 215.3042 0001413 101.2021 258.9130 15.08842756203130
Epoch: 2025-12-15T21:23Z
TLE epoch observation values (Epoch: 2025-12-15T21:23:50.699Z)
Latitude
-0.00002°
Longitude
169.55933°
Altitude
540.82 km
Speed
7.593 km/s
True Right ascension
14h 21m 13s
True Declination
0° 00' 00"
Sunlit
Object was in daylight at epoch
Visualization orbit readout
Latitude
Unknown
Longitude
Unknown
Altitude
Unknown
Speed
Unknown
Apparent Right ascension
Unknown
Apparent Declination
Unknown
Sunlit
N/A
Visualization observer readout
Local Sidereal Time
06:21:12
Azimuth
Unknown
Elevation
Unknown
Doppler factor
Unknown
Orbital elements
Apogee altitude
540.958 km
Perigee altitude
539.003 km
Semi-major axis
6,918.117 km
Eccentricity
0.00014
Inclination
53.2159°
RAAN
215.3042°
Arg. of periapsis
101.2021°
True anomaly
258.89711°
Mean anomaly
258.913°
Eccentric anomaly
258.90506°
Mean motion
3.77191 °/min
Orbital period
95.44 mins
BSTAR
0.0000089459
Loading maneuver chart data...
Computing Atmospheric mass density...
Loading historical data...
Loading historical data...
Loading historical data...
Loading historical data...
Loading historical data...
Loading historical data...
Loading historical data...

Documentation

Showing up to 5 results
|